TimeCDT,TemperatureF,Dew PointF,Humidity,Sea Level PressureIn,VisibilityMPH,Wind Direction,Wind SpeedMPH,Gust SpeedMPH,PrecipitationIn,Events,Conditions,WindDirDegrees,DateUTC
12:54 AM,57.9,50.0,75,30.07,10.0,ENE,6.9,-,N/A,,Clear,70,2012-09-02 05:54:00
1:54 AM,57.0,50.0,77,30.06,10.0,East,6.9,-,N/A,,Clear,80,2012-09-02 06:54:00
2:54 AM,57.0,51.1,81,30.06,10.0,ENE,9.2,-,N/A,,Clear,60,2012-09-02 07:54:00
3:54 AM,57.9,52.0,81,30.06,10.0,ENE,9.2,-,N/A,,Clear,70,2012-09-02 08:54:00
4:54 AM,57.0,53.1,87,30.04,10.0,East,6.9,-,N/A,,Clear,80,2012-09-02 09:54:00
5:54 AM,57.0,53.1,87,30.03,10.0,East,6.9,-,N/A,,Clear,80,2012-09-02 10:54:00
6:54 AM,57.0,54.0,89,30.03,10.0,ENE,6.9,-,N/A,,Clear,70,2012-09-02 11:54:00
7:54 AM,61.0,55.9,83,30.04,10.0,East,6.9,-,N/A,,Clear,80,2012-09-02 12:54:00
8:54 AM,66.0,57.9,75,30.04,10.0,ESE,8.1,-,N/A,,Clear,110,2012-09-02 13:54:00
9:54 AM,72.0,59.0,64,30.03,10.0,ESE,9.2,-,N/A,,Clear,110,2012-09-02 14:54:00
10:54 AM,77.0,57.0,50,30.02,10.0,ESE,11.5,-,N/A,,Clear,120,2012-09-02 15:54:00
11:54 AM,81.0,57.9,45,30.01,10.0,ESE,10.4,-,N/A,,Clear,110,2012-09-02 16:54:00
12:54 PM,82.9,61.0,47,29.99,10.0,SE,8.1,-,N/A,,Clear,130,2012-09-02 17:54:00
1:54 PM,84.0,62.1,47,29.97,10.0,East,5.8,17.3,N/A,,Clear,100,2012-09-02 18:54:00
2:54 PM,84.9,63.0,48,29.96,10.0,ESE,5.8,-,N/A,,Clear,120,2012-09-02 19:54:00
3:54 PM,87.1,63.0,44,29.94,10.0,SSE,13.8,-,N/A,,Partly Cloudy,150,2012-09-02 20:54:00
4:54 PM,84.9,63.0,48,29.94,10.0,South,8.1,-,N/A,,Partly Cloudy,170,2012-09-02 21:54:00
5:54 PM,84.0,64.0,51,29.92,10.0,SSE,10.4,-,N/A,,Scattered Clouds,150,2012-09-02 22:54:00
6:54 PM,80.1,63.0,56,29.93,10.0,SE,8.1,-,N/A,,Clear,140,2012-09-02 23:54:00
7:54 PM,77.0,63.0,62,29.94,10.0,ESE,5.8,-,N/A,,Clear,120,2012-09-03 00:54:00
8:54 PM,73.0,62.1,68,29.94,10.0,SE,5.8,-,N/A,,Clear,130,2012-09-03 01:54:00
9:54 PM,71.1,61.0,70,29.94,10.0,SE,5.8,-,N/A,,Clear,140,2012-09-03 02:54:00
11:54 PM,66.9,60.1,79,29.94,10.0,SSE,4.6,-,N/A,,Clear,160,2012-09-03 04:54:00